EW3511 Weather Reports


Display with metric or nautical units.
time (UTC)temp
F
wind
direction
speed
MPH
gust
MPH
rain 1hr
in
rain 24hr
in
rain mn
in
humidity
%
barometer
mb
20260506184556 50 292 3.0 10.0 0.00 0.04 0.02 94 1007.4
20260506183637 50 153 1.0 5.0 0.00 0.04 0.02 95 1007.3
20260506182618 50 199 2.0 7.0 0.01 0.04 0.02 95 1007.1
20260506181558 50 140 1.0 3.0 0.01 0.04 0.02 96 1007.0
20260506180558 50 100 1.0 6.0 0.01 0.04 0.02 95 1006.9
20260506175559 51 4 3.0 11.0 0.01 0.04 0.02 95 1006.8
20260506174620 52 268 4.0 13.0 0.01 0.04 0.02 98 1006.7
20260506173620 53 209 2.0 7.0 0.01 0.04 0.02 99 1006.2
20260506172600 53 222 2.0 7.0 0.00 0.03 0.01 99 1005.7
20260506171601 53 71 0.0 1.0 0.00 0.03 0.01 99 1005.5
20260506170601 53 137 0.0 1.0 0.00 0.03 0.01 99 1005.1
20260506165601 53 145 1.0 3.0 0.00 0.03 0.01 99 1004.9
20260506164603 53 183 1.0 3.0 0.00 0.03 0.01 99 1004.9
20260506061600 55 0.0 1.0 0.00 0.03 0.01 90 1006.4
20260506060558 54 70 0.0 2.0 0.00 0.03 0.01 91 1006.4
20260506050600 50 0.0 0.0 0.00 0.03 0.01 99 1006.9
20260506044533 48 0.0 0.0 0.00 0.03 0.01 99 1006.5
20260506043553 48 75 0.0 1.0 0.00 0.03 0.01 99 1006.5
20260506042534 48 108 0.0 1.0 0.00 0.03 0.01 99 1006.7
20260506041536 48 0.0 0.0 0.00 0.03 0.01 99 1006.8
20260506040614 48 124 0.0 1.0 0.00 0.03 0.01 99 1006.8
20260506035536 48 60 0.0 1.0 0.00 0.03 0.01 99 1006.8
20260506034535 49 0.0 0.0 0.00 0.03 0.01 99 1006.8
20260506033536 49 0.0 0.0 0.00 0.03 0.01 99 1006.8
20260506032557 49 0.0 0.0 0.00 0.03 0.01 99 1007.0
20260506031931 49 0.0 0.0 0.00 0.03 0.01 99 1007.2
20260506030538 49 0.0 0.0 0.00 0.03 0.01 99 1007.4
20260506025539 49 0.0 0.0 0.00 0.03 0.01 99 1007.5
20260506024539 49 0.0 0.0 0.00 0.03 0.01 99 1007.7
20260506023539 49 0.0 0.0 0.00 0.03 0.01 99 1007.7
20260506022559 49 0.0 0.0 0.00 0.03 0.01 99 1007.6
20260506021538 49 0.0 0.0 0.00 0.03 0.01 99 1007.5
20260506020538 49 0.0 0.0 0.00 0.03 0.01 99 1007.4
20260506015538 49 0.0 0.0 0.00 0.03 0.01 99 1007.6
20260506014540 49 0.0 0.0 0.00 0.03 0.01 99 1007.6
20260506013539 49 0.0 0.0 0.00 0.03 0.01 99 1007.8
20260506012540 49 0.0 0.0 0.00 0.03 0.01 99 1007.9
20260506011600 49 0.0 0.0 0.00 0.03 0.01 99 1007.8
20260506010541 50 0.0 0.0 0.00 0.03 0.01 99 1007.7
20260506005541 50 0.0 0.0 0.00 0.03 0.01 99 1007.6
20260506004541 51 0.0 0.0 0.00 0.03 0.01 99 1007.8
20260506003542 51 0.0 0.0 0.00 0.03 0.01 99 1007.9
20260506002602 52 0.0 0.0 0.00 0.03 0.01 99 1007.8
20260506001603 52 0.0 0.0 0.00 0.03 0.01 99 1008.0
20260506000543 52 0.0 0.0 0.00 0.03 0.01 98 1008.1
20260505235603 52 0.0 1.0 0.00 0.03 0.01 98 1008.1
20260505234545 52 0.0 0.0 0.00 0.03 0.01 98 1008.1
20260505233545 52 0.0 0.0 0.00 0.03 0.01 98 1008.3
20260505232545 52 125 0.0 2.0 0.00 0.03 0.01 97 1008.3
20260505231545 52 0.0 1.0 0.01 0.03 0.01 96 1008.4
20260505230546 52 151 0.0 2.0 0.01 0.03 0.01 96 1008.3
20260505225547 53 132 0.0 2.0 0.01 0.03 0.01 96 1008.3
20260505224546 53 179 1.0 5.0 0.01 0.03 0.01 96 1008.3
20260505223548 53 132 1.0 3.0 0.02 0.03 0.01 97 1008.4
20260505222547 54 99 1.0 5.0 0.02 0.03 0.01 96 1008.6
20260505221548 54 180 2.0 6.0 0.01 0.02 0.00 96 1008.7
20260505220548 54 210 2.0 6.0 0.02 0.02 0.00 96 1008.9
20260505215549 54 194 2.0 5.0 0.02 0.02 0.02 97 1008.9
20260505214549 54 195 2.0 5.0 0.02 0.02 0.02 95 1008.8
20260505213549 54 160 2.0 6.0 0.01 0.01 0.01 94 1008.6
20260505212550 54 181 1.0 5.0 0.01 0.01 0.01 94 1008.6
20260505211551 55 169 1.0 5.0 0.01 0.01 0.01 91 1008.6
20260505210551 56 268 2.0 7.0 0.00 0.00 0.00 87 1008.5
20260505205552 58 233 4.0 9.0 0.00 0.00 0.00 81 1008.2
20260505204551 58 188 2.0 9.0 0.00 0.00 0.00 80 1008.1
20260505203552 58 216 3.0 9.0 0.00 0.00 0.00 81 1007.9
20260505202552 58 163 2.0 7.0 0.00 0.00 0.00 81 1007.7
20260505201553 57 109 1.0 2.0 0.00 0.00 0.00 82 1007.3
20260505200553 57 0.0 0.0 0.00 0.00 0.00 84 1007.0
20260505195633 58 116 0.0 1.0 0.00 0.00 0.00 84 1006.9
20260505194554 58 156 1.0 3.0 0.00 0.00 0.00 82 1006.5
20260505193615 59 152 0.0 2.0 0.00 0.00 0.00 83 1006.4
20260505192554 59 163 1.0 3.0 0.00 0.00 0.00 81 1006.2
20260505191555 59 54 1.0 3.0 0.00 0.00 0.00 80 1005.8
20260505190555 59 94 0.0 2.0 0.00 0.00 0.00 84 1006.1
20260505185616 58 30 0.0 3.0 0.00 0.00 0.00 84 1006.2